GCATL EGBK-EGKA

Flight info

Callsign GCATL
Flight time 1h 25m
Altitude 2500
Route EGKA EGGW LAM DET MAY EGKA
Aircraft C172/L-V/N

Departure

Time 2026-05-03 21:12
Airport Sywell Aerodrome (EGBK)

Arrival

Time 2026-05-03 22:38
Airport Brighton City Airport (EGKA)
Time Latitude Longitude Altitude Speed Heading
2026-05-03 20:56 52.30260 -0.79038 391 ft 0 kts 96°
2026-05-03 21:03 52.30259 -0.79036 391 ft 1 kts 90°
2026-05-03 21:03 52.30275 -0.79027 391 ft 3 kts 331°
2026-05-03 21:03 52.30284 -0.79053 391 ft 2 kts 265°
2026-05-03 21:03 52.30275 -0.79085 391 ft 4 kts 237°
2026-05-03 21:04 52.30253 -0.79137 391 ft 7 kts 237°
2026-05-03 21:04 52.30241 -0.79166 391 ft 0 kts 235°
2026-05-03 21:05 52.30239 -0.79172 391 ft 1 kts 237°
2026-05-03 21:05 52.30226 -0.79204 391 ft 4 kts 237°
2026-05-03 21:06 52.30206 -0.79256 391 ft 6 kts 236°
2026-05-03 21:06 52.30179 -0.79324 392 ft 8 kts 237°
2026-05-03 21:06 52.30139 -0.79421 390 ft 12 kts 237°
2026-05-03 21:06 52.30110 -0.79557 387 ft 12 kts 313°
2026-05-03 21:07 52.30165 -0.79567 389 ft 5 kts 27°
2026-05-03 21:07 52.30183 -0.79553 390 ft 1 kts 24°
2026-05-03 21:07 52.30187 -0.79550 391 ft 1 kts 19°
2026-05-03 21:07 52.30214 -0.79536 392 ft 7 kts 20°
2026-05-03 21:08 52.30286 -0.79483 395 ft 15 kts 22°
2026-05-03 21:08 52.30399 -0.79399 399 ft 20 kts 26°
2026-05-03 21:08 52.30525 -0.79297 406 ft 19 kts 24°
2026-05-03 21:08 52.30651 -0.79208 411 ft 19 kts 25°
2026-05-03 21:09 52.30775 -0.79115 417 ft 19 kts 21°
2026-05-03 21:09 52.30900 -0.79020 421 ft 19 kts 25°
2026-05-03 21:09 52.31006 -0.78940 428 ft 13 kts 23°
2026-05-03 21:09 52.31072 -0.78880 432 ft 9 kts 50°
2026-05-03 21:10 52.31117 -0.78838 433 ft 7 kts 327°
2026-05-03 21:10 52.31094 -0.78885 432 ft 7 kts 198°
2026-05-03 21:10 52.31042 -0.78916 430 ft 8 kts 204°
2026-05-03 21:10 52.30981 -0.78962 426 ft 11 kts 204°
2026-05-03 21:11 52.30906 -0.79018 421 ft 11 kts 205°
2026-05-03 21:11 52.30802 -0.79092 418 ft 36 kts 205°
2026-05-03 21:11 52.30441 -0.79347 479 ft 64 kts 199°
2026-05-03 21:11 52.29998 -0.79550 645 ft 66 kts 193°
2026-05-03 21:12 52.29546 -0.79775 807 ft 68 kts 202°
2026-05-03 21:12 52.29076 -0.80086 937 ft 77 kts 207°
2026-05-03 21:12 52.28590 -0.80491 1120 ft 79 kts 210°
2026-05-03 21:12 52.28102 -0.80902 1306 ft 81 kts 210°
2026-05-03 21:13 52.27604 -0.81379 1472 ft 84 kts 212°
2026-05-03 21:13 52.27108 -0.81874 1661 ft 85 kts 214°
2026-05-03 21:13 52.26612 -0.82411 1846 ft 85 kts 212°
2026-05-03 21:13 52.26108 -0.82922 2022 ft 86 kts 212°
2026-05-03 21:14 52.25613 -0.83446 2211 ft 85 kts 207°
2026-05-03 21:14 52.25052 -0.83790 2387 ft 85 kts 203°
2026-05-03 21:14 52.24498 -0.84191 2540 ft 88 kts 211°
2026-05-03 21:14 52.23930 -0.84727 2595 ft 100 kts 214°
2026-05-03 21:15 52.23351 -0.85357 2623 ft 101 kts 216°
2026-05-03 21:15 52.22760 -0.86001 2657 ft 102 kts 212°
2026-05-03 21:15 52.22148 -0.86593 2685 ft 104 kts 212°
2026-05-03 21:15 52.21540 -0.87245 2717 ft 104 kts 217°
2026-05-03 21:16 52.20963 -0.87992 2681 ft 110 kts 224°
2026-05-03 21:16 52.20404 -0.88843 2643 ft 112 kts 222°
2026-05-03 21:16 52.19713 -0.89433 2612 ft 113 kts 191°
2026-05-03 21:16 52.18938 -0.89280 2562 ft 114 kts 155°
2026-05-03 21:17 52.18301 -0.88537 2540 ft 113 kts 135°
2026-05-03 21:17 52.17957 -0.87901 2493 ft 114 kts 122°
2026-05-03 21:17 52.17399 -0.86486 2492 ft 110 kts 121°
2026-05-03 21:17 52.16956 -0.85476 2511 ft 107 kts 123°
2026-05-03 21:18 52.16509 -0.84500 2517 ft 107 kts 124°
2026-05-03 21:18 52.16042 -0.83549 2519 ft 109 kts 129°
2026-05-03 21:18 52.15535 -0.82635 2512 ft 109 kts 130°
2026-05-03 21:18 52.15010 -0.81731 2520 ft 109 kts 133°
2026-05-03 21:19 52.14522 -0.80805 2537 ft 108 kts 127°
2026-05-03 21:19 52.14054 -0.79864 2588 ft 105 kts 126°
2026-05-03 21:19 52.13646 -0.78873 2600 ft 106 kts 121°
2026-05-03 21:19 52.13228 -0.77924 2687 ft 100 kts 130°
2026-05-03 21:20 52.12727 -0.77092 2664 ft 107 kts 131°
2026-05-03 21:20 52.12212 -0.76209 2661 ft 108 kts 131°
2026-05-03 21:20 52.11788 -0.75163 2599 ft 112 kts 117°
2026-05-03 21:20 52.11386 -0.74072 2580 ft 112 kts 121°
2026-05-03 21:21 52.10956 -0.73012 2549 ft 112 kts 121°
2026-05-03 21:21 52.10509 -0.71989 2525 ft 112 kts 125°
2026-05-03 21:21 52.10039 -0.70969 2513 ft 111 kts 125°
2026-05-03 21:21 52.09539 -0.70004 2482 ft 113 kts 131°
2026-05-03 21:22 52.08999 -0.69071 2460 ft 113 kts 129°
2026-05-03 21:22 52.08521 -0.68064 2441 ft 112 kts 123°
2026-05-03 21:22 52.08083 -0.67012 2429 ft 111 kts 121°
2026-05-03 21:22 52.07677 -0.65993 2451 ft 109 kts 120°
2026-05-03 21:23 52.07264 -0.64927 2411 ft 111 kts 120°
2026-05-03 21:23 52.06852 -0.63879 2391 ft 111 kts 118°
2026-05-03 21:23 52.06464 -0.62799 2395 ft 109 kts 118°
2026-05-03 21:23 52.06066 -0.61788 2432 ft 106 kts 121°
2026-05-03 21:24 52.05651 -0.60791 2463 ft 105 kts 122°
2026-05-03 21:24 52.05213 -0.59822 2453 ft 108 kts 127°
2026-05-03 21:24 52.04757 -0.58874 2520 ft 103 kts 122°
2026-05-03 21:24 52.04364 -0.57917 2538 ft 105 kts 121°
2026-05-03 21:25 52.03935 -0.56970 2610 ft 100 kts 124°
2026-05-03 21:25 52.03517 -0.56031 2602 ft 106 kts 122°
2026-05-03 21:25 52.03104 -0.55024 2581 ft 109 kts 121°
2026-05-03 21:25 52.02687 -0.53989 2581 ft 109 kts 121°
2026-05-03 21:26 52.02251 -0.52989 2591 ft 108 kts 124°
2026-05-03 21:26 52.01828 -0.51966 2567 ft 111 kts 121°
2026-05-03 21:26 52.01370 -0.50957 2562 ft 110 kts 126°
2026-05-03 21:26 52.00897 -0.50008 2585 ft 108 kts 131°
2026-05-03 21:27 52.00421 -0.49104 2598 ft 108 kts 116°
2026-05-03 21:27 52.00188 -0.47904 2495 ft 116 kts 99°
2026-05-03 21:27 52.00042 -0.46653 2513 ft 110 kts 96°
2026-05-03 21:27 51.99937 -0.45425 2505 ft 109 kts 94°
2026-05-03 21:28 51.99840 -0.44201 2476 ft 111 kts 94°
2026-05-03 21:28 51.99737 -0.42956 2474 ft 109 kts 94°
2026-05-03 21:28 51.99662 -0.41742 2477 ft 108 kts 95°
2026-05-03 21:28 51.99443 -0.40594 2488 ft 108 kts 114°
2026-05-03 21:29 51.99124 -0.39466 2479 ft 109 kts 111°
2026-05-03 21:29 51.98833 -0.38330 2460 ft 110 kts 109°
2026-05-03 21:29 51.98560 -0.37194 2499 ft 106 kts 107°
2026-05-03 21:29 51.98273 -0.36105 2516 ft 106 kts 116°
2026-05-03 21:30 51.97882 -0.35086 2541 ft 106 kts 120°
2026-05-03 21:30 51.97485 -0.34053 2518 ft 109 kts 120°
2026-05-03 21:30 51.97014 -0.33080 2515 ft 110 kts 140°
2026-05-03 21:30 51.96277 -0.32776 2475 ft 113 kts 185°
2026-05-03 21:31 51.95514 -0.33021 2503 ft 109 kts 195°
2026-05-03 21:31 51.94797 -0.33329 2546 ft 106 kts 197°
2026-05-03 21:31 51.94080 -0.33708 2524 ft 109 kts 200°
2026-05-03 21:31 51.93353 -0.34074 2525 ft 109 kts 195°
2026-05-03 21:32 51.92596 -0.34330 2503 ft 111 kts 194°
2026-05-03 21:32 51.91848 -0.34597 2472 ft 113 kts 192°
2026-05-03 21:32 51.91071 -0.34812 2458 ft 112 kts 192°
2026-05-03 21:32 51.90300 -0.35036 2433 ft 112 kts 192°
2026-05-03 21:33 51.89549 -0.35251 2451 ft 110 kts 190°
2026-05-03 21:33 51.88792 -0.35448 2467 ft 109 kts 190°
2026-05-03 21:33 51.88045 -0.35652 2475 ft 109 kts 191°
2026-05-03 21:33 51.87307 -0.35842 2481 ft 109 kts 191°
2026-05-03 21:34 51.86546 -0.36025 2482 ft 109 kts 188°
2026-05-03 21:34 51.85795 -0.36118 2453 ft 110 kts 185°
2026-05-03 21:34 51.85043 -0.36230 2475 ft 108 kts 187°
2026-05-03 21:34 51.84303 -0.36482 2472 ft 108 kts 195°
2026-05-03 21:35 51.83572 -0.36790 2480 ft 108 kts 198°
2026-05-03 21:35 51.82846 -0.37123 2490 ft 107 kts 196°
2026-05-03 21:35 51.82143 -0.37450 2525 ft 105 kts 199°
2026-05-03 21:35 51.81452 -0.37819 2552 ft 105 kts 199°
2026-05-03 21:36 51.80743 -0.38166 2547 ft 107 kts 197°
2026-05-03 21:36 51.80019 -0.38499 2551 ft 107 kts 196°
2026-05-03 21:36 51.79302 -0.38809 2535 ft 110 kts 197°
2026-05-03 21:36 51.78571 -0.39161 2535 ft 109 kts 199°
2026-05-03 21:37 51.77819 -0.39292 2551 ft 108 kts 172°
2026-05-03 21:37 51.77132 -0.38768 2496 ft 112 kts 140°
2026-05-03 21:37 51.76607 -0.37830 2471 ft 112 kts 127°
2026-05-03 21:37 51.76189 -0.36779 2465 ft 110 kts 116°
2026-05-03 21:38 51.75848 -0.35656 2451 ft 110 kts 116°
2026-05-03 21:38 51.75452 -0.34651 2535 ft 103 kts 122°
2026-05-03 21:38 51.75066 -0.33651 2547 ft 104 kts 120°
2026-05-03 21:38 51.74664 -0.32659 2551 ft 107 kts 124°
2026-05-03 21:39 51.74198 -0.31706 2536 ft 109 kts 129°
2026-05-03 21:39 51.73719 -0.30742 2503 ft 111 kts 123°
2026-05-03 21:39 51.73386 -0.29624 2499 ft 109 kts 112°
2026-05-03 21:39 51.73083 -0.28511 2510 ft 108 kts 112°
2026-05-03 21:40 51.72802 -0.27393 2560 ft 105 kts 112°
2026-05-03 21:40 51.72499 -0.26292 2521 ft 109 kts 112°
2026-05-03 21:40 51.72185 -0.25155 2506 ft 110 kts 114°
2026-05-03 21:40 51.71898 -0.24028 2520 ft 107 kts 104°
2026-05-03 21:41 51.71708 -0.22854 2523 ft 108 kts 103°
2026-05-03 21:41 51.71510 -0.21677 2528 ft 108 kts 105°
2026-05-03 21:41 51.71289 -0.20549 2580 ft 105 kts 106°
2026-05-03 21:41 51.71063 -0.19419 2582 ft 106 kts 106°
2026-05-03 21:42 51.70834 -0.18276 2568 ft 109 kts 107°
2026-05-03 21:42 51.70599 -0.17095 2545 ft 110 kts 107°
2026-05-03 21:42 51.70364 -0.15910 2524 ft 111 kts 107°
2026-05-03 21:42 51.70130 -0.14728 2496 ft 112 kts 107°
2026-05-03 21:43 51.69892 -0.13514 2470 ft 112 kts 106°
2026-05-03 21:43 51.69671 -0.12306 2447 ft 112 kts 105°
2026-05-03 21:43 51.69452 -0.11107 2422 ft 113 kts 106°
2026-05-03 21:43 51.69229 -0.09883 2397 ft 113 kts 106°
2026-05-03 21:44 51.69007 -0.08674 2376 ft 113 kts 106°
2026-05-03 21:44 51.68784 -0.07460 2349 ft 113 kts 106°
2026-05-03 21:44 51.68560 -0.06240 2318 ft 113 kts 106°
2026-05-03 21:44 51.68334 -0.05015 2282 ft 113 kts 105°
2026-05-03 21:45 51.68109 -0.03795 2247 ft 114 kts 105°
2026-05-03 21:45 51.67886 -0.02582 2232 ft 113 kts 106°
2026-05-03 21:45 51.67662 -0.01370 2209 ft 113 kts 106°
2026-05-03 21:45 51.67437 -0.00155 2183 ft 113 kts 106°
2026-05-03 21:46 51.67215 0.01050 2156 ft 112 kts 105°
2026-05-03 21:46 51.66994 0.02259 2131 ft 112 kts 105°
2026-05-03 21:46 51.66773 0.03461 2109 ft 112 kts 105°
2026-05-03 21:46 51.66550 0.04670 2088 ft 112 kts 105°
2026-05-03 21:47 51.66330 0.05870 2083 ft 110 kts 106°
2026-05-03 21:47 51.66111 0.07059 2080 ft 110 kts 106°
2026-05-03 21:47 51.65889 0.08256 2054 ft 112 kts 105°
2026-05-03 21:47 51.65668 0.09445 2025 ft 113 kts 105°
2026-05-03 21:48 51.65443 0.10661 2001 ft 113 kts 105°
2026-05-03 21:48 51.65217 0.11876 1983 ft 113 kts 105°
2026-05-03 21:48 51.65128 0.13105 1976 ft 110 kts 78°
2026-05-03 21:48 51.65184 0.14326 1974 ft 110 kts 96°
2026-05-03 21:49 51.64892 0.15454 1978 ft 110 kts 129°
2026-05-03 21:49 51.64357 0.16329 1974 ft 110 kts 139°
2026-05-03 21:49 51.63782 0.17123 1975 ft 109 kts 138°
2026-05-03 21:49 51.63208 0.17926 1975 ft 109 kts 140°
2026-05-03 21:50 51.62620 0.18704 1972 ft 109 kts 140°
2026-05-03 21:50 51.62027 0.19485 1970 ft 109 kts 140°
2026-05-03 21:50 51.61445 0.20253 1975 ft 109 kts 141°
2026-05-03 21:50 51.60852 0.21038 1976 ft 110 kts 140°
2026-05-03 21:51 51.60261 0.21825 1977 ft 110 kts 139°
2026-05-03 21:51 51.59667 0.22618 1972 ft 110 kts 140°
2026-05-03 21:51 51.59084 0.23405 1969 ft 109 kts 140°
2026-05-03 21:51 51.58505 0.24207 1978 ft 109 kts 139°
2026-05-03 21:52 51.57935 0.24997 1980 ft 109 kts 140°
2026-05-03 21:52 51.57360 0.25793 1983 ft 109 kts 140°
2026-05-03 21:52 51.56786 0.26592 1982 ft 109 kts 140°
2026-05-03 21:52 51.56208 0.27398 1983 ft 109 kts 140°
2026-05-03 21:53 51.55643 0.28188 1982 ft 109 kts 140°
2026-05-03 21:53 51.55069 0.28989 1981 ft 109 kts 139°
2026-05-03 21:53 51.54497 0.29779 1980 ft 109 kts 139°
2026-05-03 21:53 51.53918 0.30574 1980 ft 109 kts 139°
2026-05-03 21:54 51.53297 0.31237 1978 ft 108 kts 152°
2026-05-03 21:54 51.52629 0.31828 1980 ft 108 kts 150°
2026-05-03 21:54 51.51981 0.32452 1981 ft 109 kts 148°
2026-05-03 21:54 51.51345 0.33113 1981 ft 108 kts 146°
2026-05-03 21:55 51.50727 0.33794 1981 ft 108 kts 146°
2026-05-03 21:55 51.50112 0.34503 1981 ft 108 kts 144°
2026-05-03 21:55 51.49507 0.35222 1982 ft 108 kts 144°
2026-05-03 21:55 51.48910 0.35947 1981 ft 108 kts 143°
2026-05-03 21:56 51.48311 0.36689 1981 ft 108 kts 143°
2026-05-03 21:56 51.47723 0.37426 1983 ft 108 kts 143°
2026-05-03 21:56 51.47131 0.38174 1983 ft 108 kts 142°
2026-05-03 21:56 51.46545 0.38921 1987 ft 108 kts 142°
2026-05-03 21:57 51.45952 0.39679 1987 ft 109 kts 141°
2026-05-03 21:57 51.45355 0.40447 1978 ft 109 kts 142°
2026-05-03 21:57 51.44765 0.41209 1982 ft 108 kts 141°
2026-05-03 21:57 51.44172 0.41974 1979 ft 109 kts 141°
2026-05-03 21:58 51.43588 0.42732 2000 ft 106 kts 141°
2026-05-03 21:58 51.43011 0.43481 2006 ft 107 kts 141°
2026-05-03 21:58 51.42424 0.44229 1997 ft 108 kts 143°
2026-05-03 21:58 51.41838 0.44979 2004 ft 108 kts 142°
2026-05-03 21:59 51.41245 0.45741 2004 ft 109 kts 142°
2026-05-03 21:59 51.40648 0.46512 1998 ft 110 kts 142°
2026-05-03 21:59 51.40055 0.47278 1999 ft 109 kts 142°
2026-05-03 21:59 51.39457 0.48050 1998 ft 109 kts 141°
2026-05-03 22:00 51.38870 0.48808 1996 ft 109 kts 141°
2026-05-03 22:00 51.38280 0.49573 1998 ft 109 kts 141°
2026-05-03 22:00 51.37684 0.50344 1999 ft 109 kts 141°
2026-05-03 22:00 51.37086 0.51117 1999 ft 110 kts 140°
2026-05-03 22:01 51.36482 0.51897 1999 ft 110 kts 140°
2026-05-03 22:01 51.35894 0.52670 2008 ft 110 kts 140°
2026-05-03 22:01 51.35306 0.53440 2036 ft 108 kts 141°
2026-05-03 22:01 51.34703 0.54176 2029 ft 110 kts 144°
2026-05-03 22:02 51.34081 0.54880 2029 ft 110 kts 145°
2026-05-03 22:02 51.33439 0.55571 2038 ft 109 kts 149°
2026-05-03 22:02 51.32724 0.56018 2055 ft 107 kts 167°
2026-05-03 22:02 51.31974 0.56241 1997 ft 113 kts 175°
2026-05-03 22:03 51.31209 0.56109 1969 ft 111 kts 203°
2026-05-03 22:03 51.30506 0.55628 1972 ft 108 kts 207°
2026-05-03 22:03 51.29837 0.55093 1985 ft 106 kts 210°
2026-05-03 22:03 51.29182 0.54536 1979 ft 107 kts 201°
2026-05-03 22:04 51.28444 0.54617 2000 ft 108 kts 154°
2026-05-03 22:04 51.27968 0.55508 1990 ft 111 kts 100°
2026-05-03 22:04 51.28173 0.56628 1974 ft 108 kts 41°
2026-05-03 22:04 51.28851 0.56978 1927 ft 108 kts 349°
2026-05-03 22:05 51.29519 0.56475 1882 ft 108 kts 308°
2026-05-03 22:05 51.29631 0.55335 1876 ft 106 kts 248°
2026-05-03 22:05 51.29099 0.54600 1947 ft 102 kts 213°
2026-05-03 22:05 51.28481 0.54001 1991 ft 101 kts 211°
2026-05-03 22:06 51.27875 0.53424 2003 ft 103 kts 211°
2026-05-03 22:06 51.27250 0.52831 2005 ft 105 kts 212°
2026-05-03 22:06 51.26622 0.52237 2006 ft 106 kts 212°
2026-05-03 22:06 51.25972 0.51624 2006 ft 107 kts 212°
2026-05-03 22:07 51.25328 0.51017 2003 ft 107 kts 211°
2026-05-03 22:07 51.24685 0.50415 2004 ft 107 kts 211°
2026-05-03 22:07 51.24050 0.49815 2004 ft 107 kts 211°
2026-05-03 22:07 51.23407 0.49205 2004 ft 107 kts 211°
2026-05-03 22:08 51.22765 0.48592 2004 ft 107 kts 211°
2026-05-03 22:08 51.22121 0.47975 2004 ft 107 kts 212°
2026-05-03 22:08 51.21485 0.47367 2003 ft 107 kts 212°
2026-05-03 22:08 51.20842 0.46755 2003 ft 107 kts 211°
2026-05-03 22:09 51.20200 0.46143 2003 ft 107 kts 211°
2026-05-03 22:09 51.19592 0.45486 1998 ft 106 kts 224°
2026-05-03 22:09 51.19088 0.44617 2003 ft 106 kts 229°
2026-05-03 22:10 51.18113 0.42836 2003 ft 105 kts 230°
2026-05-03 22:10 51.17629 0.41957 2002 ft 105 kts 229°
2026-05-03 22:10 51.17148 0.41083 2002 ft 105 kts 229°
2026-05-03 22:10 51.16658 0.40186 2002 ft 105 kts 229°
2026-05-03 22:11 51.16173 0.39299 2003 ft 105 kts 229°
2026-05-03 22:11 51.15690 0.38415 2007 ft 105 kts 229°
2026-05-03 22:11 51.15215 0.37540 2010 ft 104 kts 230°
2026-05-03 22:11 51.14732 0.36648 2013 ft 104 kts 229°
2026-05-03 22:12 51.14258 0.35770 2015 ft 105 kts 229°
2026-05-03 22:12 51.13788 0.34880 2009 ft 105 kts 236°
2026-05-03 22:12 51.13503 0.33830 2007 ft 104 kts 248°
2026-05-03 22:12 51.13231 0.32738 2004 ft 104 kts 248°
2026-05-03 22:13 51.12930 0.31667 2002 ft 104 kts 244°
2026-05-03 22:13 51.12587 0.30646 1999 ft 104 kts 240°
2026-05-03 22:13 51.12204 0.29677 2000 ft 104 kts 236°
2026-05-03 22:13 51.11776 0.28734 2001 ft 105 kts 233°
2026-05-03 22:14 51.11316 0.27829 2001 ft 105 kts 230°
2026-05-03 22:14 51.10838 0.26952 2001 ft 105 kts 229°
2026-05-03 22:14 51.10353 0.26100 2003 ft 105 kts 227°
2026-05-03 22:14 51.09854 0.25241 2004 ft 105 kts 227°
2026-05-03 22:15 51.09355 0.24394 2004 ft 105 kts 227°
2026-05-03 22:15 51.08855 0.23550 2005 ft 105 kts 227°
2026-05-03 22:15 51.08351 0.22704 2005 ft 105 kts 227°
2026-05-03 22:15 51.07852 0.21868 2006 ft 105 kts 227°
2026-05-03 22:16 51.07342 0.21015 2006 ft 106 kts 227°
2026-05-03 22:16 51.06834 0.20167 2005 ft 105 kts 227°
2026-05-03 22:16 51.06335 0.19328 2003 ft 105 kts 229°
2026-05-03 22:16 51.05838 0.18475 2006 ft 104 kts 229°
2026-05-03 22:17 51.05345 0.17637 2005 ft 104 kts 228°
2026-05-03 22:17 51.04847 0.16797 2005 ft 104 kts 228°
2026-05-03 22:17 51.04343 0.15953 2005 ft 104 kts 227°
2026-05-03 22:17 51.03845 0.15122 2010 ft 104 kts 227°
2026-05-03 22:18 51.03350 0.14298 2007 ft 105 kts 227°
2026-05-03 22:18 51.02842 0.13456 2006 ft 105 kts 227°
2026-05-03 22:18 51.02336 0.12615 2006 ft 105 kts 228°
2026-05-03 22:18 51.01819 0.11807 2000 ft 106 kts 217°
2026-05-03 22:19 51.01154 0.11279 2005 ft 106 kts 204°
2026-05-03 22:19 51.00472 0.10850 2005 ft 106 kts 203°
2026-05-03 22:19 50.99776 0.10426 2008 ft 106 kts 202°
2026-05-03 22:19 50.99085 0.10007 2009 ft 106 kts 202°
2026-05-03 22:20 50.98400 0.09592 2007 ft 106 kts 202°
2026-05-03 22:20 50.97708 0.09175 2009 ft 106 kts 202°
2026-05-03 22:20 50.97022 0.08761 2009 ft 106 kts 202°
2026-05-03 22:20 50.96339 0.08350 2009 ft 106 kts 202°
2026-05-03 22:21 50.95647 0.07932 2009 ft 106 kts 202°
2026-05-03 22:21 50.94964 0.07521 2008 ft 106 kts 202°
2026-05-03 22:21 50.94274 0.07105 2009 ft 106 kts 202°
2026-05-03 22:21 50.93588 0.06692 2008 ft 106 kts 202°
2026-05-03 22:22 50.92895 0.06275 2009 ft 106 kts 202°
2026-05-03 22:22 50.92203 0.05861 2009 ft 106 kts 203°
2026-05-03 22:22 50.91516 0.05453 2008 ft 106 kts 203°
2026-05-03 22:22 50.90820 0.05041 2009 ft 107 kts 203°
2026-05-03 22:23 50.90122 0.04628 2007 ft 107 kts 203°
2026-05-03 22:23 50.89410 0.04203 2009 ft 107 kts 202°
2026-05-03 22:23 50.88711 0.03785 2009 ft 108 kts 202°
2026-05-03 22:23 50.88005 0.03362 2011 ft 108 kts 202°
2026-05-03 22:24 50.87304 0.02943 2010 ft 109 kts 202°
2026-05-03 22:24 50.86683 0.02310 2002 ft 106 kts 236°
2026-05-03 22:24 50.86415 0.01239 2009 ft 104 kts 258°
2026-05-03 22:24 50.86275 0.00112 2009 ft 104 kts 262°
2026-05-03 22:25 50.86236 -0.01019 2005 ft 103 kts 270°
2026-05-03 22:25 50.86242 -0.02160 2006 ft 103 kts 271°
2026-05-03 22:25 50.86252 -0.03298 2008 ft 103 kts 271°
2026-05-03 22:25 50.86262 -0.04431 2008 ft 104 kts 271°
2026-05-03 22:26 50.86276 -0.05581 2008 ft 104 kts 273°
2026-05-03 22:26 50.86307 -0.06707 2006 ft 103 kts 275°
2026-05-03 22:26 50.86367 -0.07857 1964 ft 104 kts 275°
2026-05-03 22:26 50.86435 -0.08985 1897 ft 104 kts 279°
2026-05-03 22:27 50.86540 -0.10112 1881 ft 100 kts 276°
2026-05-03 22:27 50.86507 -0.11183 1940 ft 95 kts 262°
2026-05-03 22:27 50.86374 -0.12195 1996 ft 93 kts 258°
2026-05-03 22:27 50.86224 -0.13195 2022 ft 95 kts 257°
2026-05-03 22:28 50.86062 -0.14198 2050 ft 95 kts 257°
2026-05-03 22:28 50.85893 -0.15221 2062 ft 96 kts 256°
2026-05-03 22:28 50.85708 -0.16237 2066 ft 96 kts 256°
2026-05-03 22:28 50.85525 -0.17249 2059 ft 96 kts 256°
2026-05-03 22:29 50.85331 -0.18266 2057 ft 96 kts 256°
2026-05-03 22:29 50.85167 -0.19289 2054 ft 96 kts 259°
2026-05-03 22:29 50.85014 -0.20314 2050 ft 95 kts 258°
2026-05-03 22:29 50.84853 -0.21332 2035 ft 95 kts 258°
2026-05-03 22:30 50.84694 -0.22339 2027 ft 95 kts 257°
2026-05-03 22:30 50.84523 -0.23353 2007 ft 96 kts 257°
2026-05-03 22:30 50.84347 -0.24377 1985 ft 97 kts 256°
2026-05-03 22:30 50.84156 -0.25410 1962 ft 97 kts 256°
2026-05-03 22:31 50.83982 -0.26427 1973 ft 94 kts 259°
2026-05-03 22:31 50.83841 -0.27418 1987 ft 91 kts 259°
2026-05-03 22:31 50.83699 -0.28386 2005 ft 90 kts 264°
2026-05-03 22:31 50.83758 -0.29388 1957 ft 94 kts 281°
2026-05-03 22:32 50.83770 -0.30375 1975 ft 93 kts 248°
2026-05-03 22:32 50.83261 -0.30952 2030 ft 88 kts 204°
2026-05-03 22:32 50.82696 -0.31337 2073 ft 87 kts 206°
2026-05-03 22:32 50.82088 -0.31456 2037 ft 94 kts 158°
2026-05-03 22:33 50.81706 -0.30599 1959 ft 100 kts 111°
2026-05-03 22:33 50.81451 -0.29580 1891 ft 102 kts 113°
2026-05-03 22:33 50.81285 -0.28512 1812 ft 101 kts 78°
2026-05-03 22:33 50.81711 -0.27687 1679 ft 101 kts 22°
2026-05-03 22:34 50.82367 -0.27262 1551 ft 103 kts 21°
2026-05-03 22:34 50.83021 -0.26825 1441 ft 102 kts 21°
2026-05-03 22:34 50.83680 -0.26408 1323 ft 101 kts 19°
2026-05-03 22:34 50.84340 -0.26024 1217 ft 100 kts 19°
2026-05-03 22:35 50.84982 -0.25628 1121 ft 99 kts 19°
2026-05-03 22:35 50.85632 -0.25305 1073 ft 94 kts
2026-05-03 22:35 50.86159 -0.25741 1030 ft 87 kts 305°
2026-05-03 22:35 50.86494 -0.26534 982 ft 84 kts 302°
2026-05-03 22:36 50.86727 -0.27320 968 ft 74 kts 279°
2026-05-03 22:36 50.86512 -0.28016 903 ft 75 kts 212°
2026-05-03 22:36 50.86004 -0.28256 759 ft 78 kts 196°
2026-05-03 22:36 50.85511 -0.28510 585 ft 71 kts 203°
2026-05-03 22:37 50.85059 -0.28783 398 ft 67 kts 202°
2026-05-03 22:37 50.84629 -0.29055 249 ft 67 kts 203°
2026-05-03 22:37 50.84197 -0.29321 110 ft 65 kts 201°
2026-05-03 22:37 50.83794 -0.29573 5 ft 56 kts 204°
2026-05-03 22:38 50.83502 -0.29761 0 ft 36 kts 201°
2026-05-03 22:38 50.83298 -0.29891 3 ft 19 kts 198°
2026-05-03 22:38 50.83259 -0.29819 3 ft 13 kts 66°
2026-05-03 22:38 50.83297 -0.29692 2 ft 12 kts 62°
2026-05-03 22:39 50.83334 -0.29582 1 ft 10 kts 65°
2026-05-03 22:39 50.83363 -0.29488 1 ft 8 kts 65°
2026-05-03 22:39 50.83389 -0.29407 1 ft 8 kts 59°
2026-05-03 22:39 50.83416 -0.29326 2 ft 8 kts 63°
2026-05-03 22:40 50.83441 -0.29227 2 ft 10 kts 76°
2026-05-03 22:40 50.83464 -0.29100 1 ft 13 kts 74°
2026-05-03 22:40 50.83481 -0.28967 0 ft 9 kts 118°
2026-05-03 22:40 50.83441 -0.28939 1 ft 3 kts 165°
2026-05-03 22:41 50.83432 -0.28925 1 ft 2 kts 90°
2026-05-03 22:41 50.83446 -0.28892 1 ft 5 kts 12°
2026-05-03 22:41 50.83460 -0.28925 1 ft 0 kts 253°